User: anonymous   Login
Location: Frydek-Mistek
(49.6830°N, 18.3330°E)
Time: 15:10:42
(UTC+02:00)
Language:

Courier 1B Rocket - Orbit

View from above orbital plane
View from above orbital plane
View from above satellite
View from above satellite

Ground track
Ground track

The orbit data is extracted from the following two-line orbital elements,

1 00059U 60013B   15107.74806506  .00000163  00000-0  96874-4 0  9992
2 00059 028.2484 194.5618 0189285 282.7589 075.1865 13.52919598691271
Epoch (UTC): 17 April 2015 17:57:12
Eccentricity: 0.0189285
inclination: 28.2484°
perigee height: 921 km
apogee height: 1202 km
right ascension of ascending node: 194.5618°
argument of perigee: 282.7589°
revolutions per day: 13.52919598
mean anomaly at epoch: 75.1865°
orbit number at epoch: 69127

The dashed part of the orbit path shows where the satellite is in the earth's shadow,  

DLR